Flag for Mexico Weather past 2 weeks in Mexicali, Baja California, Mexico

Now
86 °F

Clear.


Feels Like: 86 °F
Forecast: 84 / 107 °F
Wind: 5 mph from Southwest

Location: Imperial County Airport

Current Time: Jul 28, 2014 at 3:36:09 AM

Latest Report: Jul 28, 2014 at 2:53 AM


Visibility: 10 mi

Pressure: 29.87 "Hg

Humidity: 43%

Dew point: 61 °F

Location of MexicaliLocation

Historic Weather in Mexicali — Graph

°F

Mexicali temperature yesterday

Maximum temperature yesterday: 99 °F (at 5:53 PM)
Minimum temperature yesterday: 85 °F (at 6:53 AM)
Average temperature yesterday: 91 °F

Past Weeks' High & Low Weather Summary

 TemperatureHumidityPressure
High116 °F (Jul 23, 5:53 PM)77% (Jul 15, 5:53 AM)29.97 "Hg (Jul 15, 5:53 AM)
Low73 °F (Jul 22, 5:53 AM)6% (Jul 17, 2:53 PM)29.58 "Hg (Jul 24, 5:53 PM)
Average94 °F31%29.79 "Hg
* Reported Jul 13 1:53 AM — Jul 28 1:53 AM, Mexicali, Weather by CustomWeather, © 2014

Note: Actual official high and low records may vary slightly from our data, if they occured in-between our weather recording intervals... More about our weather records

Advertising

Mexicali weather history for previous 24 hours

 ConditionsComfort  
Time TempWeatherWind HumidityBarometerVisibility
1:53 AM
Jul 28
84 °FClear.3 mph49%29.87 "Hg10 mi
12:53 AM87 °FClear.5 mph43%29.87 "Hg10 mi
11:53 PM
Jul 27
90 °FClear.5 mph37%29.87 "Hg10 mi
10:53 PM93 °FClear.5 mph33%29.85 "Hg10 mi
9:53 PM93 °FClear.6 mph36%29.85 "Hg10 mi
8:53 PM94 °FClear.9 mph37%29.84 "Hg10 mi
7:53 PM97 °FSunny.5 mph30%29.82 "Hg10 mi
6:53 PM98 °FSunny.9 mph29%29.80 "Hg10 mi
5:53 PM99 °FSunny.8 mph29%29.80 "Hg10 mi
4:53 PM98 °FSunny.5 mph32%29.81 "Hg10 mi
3:53 PM98 °FSunny.10 mph32%29.83 "Hg10 mi
2:53 PM97 °FSunny.3 mph33%29.85 "Hg10 mi
1:53 PM93 °FSunny.5 mph40%29.89 "Hg10 mi
12:53 PM90 °FSunny.8 mph47%29.90 "Hg10 mi
11:53 AM89 °FPassing clouds.7 mph46%29.90 "Hg10 mi
10:53 AM86 °FSunny.18 mph49%29.91 "Hg10 mi
9:53 AM89 °FPassing clouds.15 mph45%29.97 "Hg10 mi
8:53 AM87 °FSunny.23 mph48%29.96 "Hg8 mi
7:53 AM88 °FHaze.26 mph50%29.93 "Hg5 mi
6:53 AM85 °FSunny.18 mph61%29.91 "Hg10 mi
5:53 AM86 °FClear.7 mph70%29.83 "Hg10 mi
4:53 AM86 °FClear.10 mph67%29.80 "Hg10 mi
3:53 AM87 °FClear.7 mph55%29.79 "Hg10 mi
Weather by CustomWeather, © 2014

See weather overviewHow to use our weather pages